CW6099 Weather Reports


Display with metric or nautical units.
time (UTC)temp
F
wind
direction
speed
MPH
gust
MPH
rain 1hr
in
rain 24hr
in
rain mn
in
humidity
%
barometer
mb
20260906041654 75 163 8.0 11.0 0.00 0.00 0.00 72 1015.3
20260906041251 76 147 8.0 11.0 0.00 0.00 0.00 72 1015.3
20260906041203 76 188 8.0 11.0 0.00 0.00 0.00 72 1015.4
20260906040648 76 164 7.0 11.0 0.00 0.00 0.00 71 1015.4
20260906040245 76 163 7.0 11.0 0.00 0.00 0.00 71 1015.4
20260906040138 76 159 7.0 14.0 0.00 0.00 0.00 71 1015.4
20260906035648 77 153 7.0 14.0 0.00 0.00 0.00 70 1015.4
20260906035306 77 138 8.0 12.0 0.00 0.00 0.00 70 1015.6
20260906035139 77 146 8.0 12.0 0.00 0.00 0.00 70 1015.6
20260906034649 77 153 8.0 14.0 0.00 0.00 0.00 70 1015.5
20260906034246 77 139 8.0 13.0 0.00 0.00 0.00 69 1015.5
20260906034139 77 160 8.0 13.0 0.00 0.00 0.00 69 1015.4
20260906033648 77 140 9.0 13.0 0.00 0.00 0.00 69 1015.4
20260906033245 77 147 9.0 15.0 0.00 0.00 0.00 68 1015.4
20260906033138 77 170 9.0 15.0 0.00 0.00 0.00 68 1015.4
20260906032647 78 161 9.0 15.0 0.00 0.00 0.00 68 1015.4
20260906032242 78 132 9.0 17.0 0.00 0.00 0.00 68 1015.3
20260906032155 78 163 9.0 17.0 0.00 0.00 0.00 68 1015.3
20260906031642 78 153 11.0 17.0 0.00 0.00 0.00 67 1015.3
20260906031239 78 151 11.0 17.0 0.00 0.00 0.00 67 1015.2
20260906031151 78 180 12.0 17.0 0.00 0.00 0.00 67 1015.1
20260906030641 78 173 12.0 17.0 0.00 0.00 0.00 67 1015.1
20260906030238 78 161 12.0 18.0 0.00 0.00 0.00 66 1015.1
20260906030211 79 130 12.0 18.0 0.00 0.00 0.00 66 1015.1
20260906025704 79 112 11.0 17.0 0.00 0.00 0.00 65 1015.0
20260906025237 79 151 13.0 19.0 0.00 0.00 0.00 65 1014.9
20260906025153 79 171 13.0 19.0 0.00 0.00 0.00 65 1014.8
20260906024643 79 120 13.0 20.0 0.00 0.00 0.00 64 1014.8
20260906024239 79 144 12.0 19.0 0.00 0.00 0.00 64 1014.8
20260906024152 79 101 12.0 19.0 0.00 0.00 0.00 64 1014.8
20260906023642 80 126 12.0 19.0 0.00 0.00 0.00 63 1014.9
20260906023238 80 169 11.0 18.0 0.00 0.00 0.00 63 1015.0
20260906023212 80 159 11.0 18.0 0.00 0.00 0.00 63 1014.9
20260906022640 80 121 10.0 16.0 0.00 0.00 0.00 63 1014.8
20260906022236 79 158 8.0 12.0 0.00 0.00 0.00 63 1014.9
20260906022147 80 148 7.0 12.0 0.00 0.00 0.00 63 1014.9
20260906021637 80 173 6.0 10.0 0.00 0.00 0.00 62 1014.8
20260906021254 80 100 7.0 10.0 0.00 0.00 0.00 61 1014.8
20260906021147 80 98 9.0 10.0 0.00 0.00 0.00 61 1014.8
20260906020641 80 155 7.0 8.0 0.00 0.00 0.00 60 1014.7
20260906020315 81 155 6.0 8.0 0.00 0.00 0.00 60 1014.6
20260906020150 81 146 6.0 8.0 0.00 0.00 0.00 60 1014.6
20260906015639 81 159 6.0 8.0 0.00 0.00 0.00 59 1014.7
20260906015237 82 172 5.0 8.0 0.00 0.00 0.00 58 1014.6
20260906015149 82 141 5.0 8.0 0.00 0.00 0.00 58 1014.6
20260906014639 82 153 5.0 9.0 0.00 0.00 0.00 58 1014.5
20260906014253 83 149 6.0 10.0 0.00 0.00 0.00 57 1014.3
20260906014146 83 153 6.0 10.0 0.00 0.00 0.00 57 1014.3
20260906013653 83 147 6.0 11.0 0.00 0.00 0.00 56 1014.3
20260906013250 83 140 7.0 12.0 0.00 0.00 0.00 55 1014.2
20260906013144 84 145 7.0 12.0 0.00 0.00 0.00 55 1014.1
20260906012654 84 156 7.0 12.0 0.00 0.00 0.00 54 1014.1
20260906012249 84 172 7.0 12.0 0.00 0.00 0.00 54 1014.0
20260906012146 84 200 7.0 12.0 0.00 0.00 0.00 54 1014.0
20260906011636 85 139 9.0 12.0 0.00 0.00 0.00 53 1014.0
20260906011252 85 183 8.0 12.0 0.00 0.00 0.00 53 1014.0
20260906011145 85 142 8.0 12.0 0.00 0.00 0.00 53 1013.9
20260906010653 86 157 10.0 17.0 0.00 0.00 0.00 53 1014.0
20260906010249 86 186 10.0 17.0 0.00 0.00 0.00 52 1013.9
20260906010203 86 167 10.0 17.0 0.00 0.00 0.00 52 1013.9
20260906005652 86 153 10.0 17.0 0.00 0.00 0.00 52 1013.8
20260906005247 87 184 11.0 18.0 0.00 0.00 0.00 51 1013.9
20260906005139 87 154 10.0 18.0 0.00 0.00 0.00 51 1013.8
20260906004648 87 148 11.0 17.0 0.00 0.00 0.00 51 1013.8
20260906004245 87 170 12.0 17.0 0.00 0.00 0.00 50 1013.7
20260906004137 88 155 12.0 17.0 0.00 0.00 0.00 50 1013.8
20260906003648 88 175 11.0 21.0 0.00 0.00 0.00 49 1013.7
20260906003305 88 146 11.0 21.0 0.00 0.00 0.00 48 1013.5
20260906003140 88 171 11.0 21.0 0.00 0.00 0.00 48 1013.5
20260906002649 89 153 12.0 21.0 0.00 0.00 0.00 47 1013.4
20260906002245 90 160 12.0 21.0 0.00 0.00 0.00 46 1013.5
20260906002138 90 188 13.0 21.0 0.00 0.00 0.00 45 1013.4
20260906001649 91 117 12.0 19.0 0.00 0.00 0.00 44 1013.4
20260906001244 91 166 12.0 21.0 0.00 0.00 0.00 45 1013.4
20260906001158 91 141 13.0 21.0 0.00 0.00 0.00 45 1013.4
20260906000707 91 174 13.0 21.0 0.00 0.00 0.00 46 1013.4
20260906000243 92 175 12.0 19.0 0.00 0.00 0.00 45 1013.4
20260906000154 92 125 11.0 19.0 0.00 0.00 0.00 45 1013.4
20260905235644 92 100 13.0 24.0 0.00 0.00 0.00 44 1013.4
20260905235300 92 167 14.0 24.0 0.00 0.00 0.00 45 1013.4
20260905235211 92 159 15.0 24.0 0.00 0.00 0.00 45 1013.4
20260905234641 92 146 11.0 22.0 0.00 0.00 0.00 45 1013.5
20260905234238 92 157 14.0 22.0 0.00 0.00 0.00 45 1013.4
20260905234151 92 183 14.0 22.0 0.00 0.00 0.00 45 1013.4
20260905233641 93 178 13.0 21.0 0.00 0.00 0.00 44 1013.5
20260905233236 93 168 11.0 21.0 0.00 0.00 0.00 45 1013.6
20260905233209 93 163 10.0 24.0 0.00 0.00 0.00 46 1013.6
20260905232641 93 162 11.0 24.0 0.00 0.00 0.00 45 1013.6
20260905232253 93 130 15.0 22.0 0.00 0.00 0.00 44 1013.6
20260905232151 93 146 14.0 21.0 0.00 0.00 0.00 44 1013.5
20260905231640 93 67 13.0 22.0 0.00 0.00 0.00 44 1013.6
20260905231236 93 162 13.0 21.0 0.00 0.00 0.00 45 1013.6
20260905231149 93 194 12.0 20.0 0.00 0.00 0.00 45 1013.5
20260905230639 94 178 12.0 22.0 0.00 0.00 0.00 45 1013.4
20260905230255 94 158 13.0 22.0 0.00 0.00 0.00 44 1013.4
20260905230148 94 155 15.0 22.0 0.00 0.00 0.00 43 1013.4
20260905225638 94 153 14.0 20.0 0.00 0.00 0.00 46 1013.3
20260905225315 94 160 10.0 19.0 0.00 0.00 0.00 44 1013.3
20260905225207 94 150 11.0 19.0 0.00 0.00 0.00 43 1013.3
20260905224636 94 140 14.0 22.0 0.00 0.00 0.00 43 1013.3
20260905224252 94 169 14.0 26.0 0.00 0.00 0.00 43 1013.3
20260905224143 94 167 14.0 26.0 0.00 0.00 0.00 42 1013.3
20260905223709 95 136 17.0 26.0 0.00 0.00 0.00 43 1013.3
20260905223304 95 148 15.0 21.0 0.00 0.00 0.00 44 1013.3
20260905223137 95 147 14.0 21.0 0.00 0.00 0.00 44 1013.3
20260905222646 95 149 14.0 21.0 0.00 0.00 0.00 42 1013.4
20260905222305 95 141 15.0 21.0 0.00 0.00 0.00 44 1013.4
20260905222138 95 142 14.0 21.0 0.00 0.00 0.00 44 1013.4
20260905221708 94 163 13.0 21.0 0.00 0.00 0.00 43 1013.3
20260905221240 95 173 14.0 21.0 0.00 0.00 0.00 41 1013.3
20260905221157 95 159 14.0 20.0 0.00 0.00 0.00 41 1013.4
20260905220646 95 86 11.0 20.0 0.00 0.00 0.00 42 1013.4
20260905220239 95 151 13.0 21.0 0.00 0.00 0.00 43 1013.5
20260905220152 95 147 12.0 21.0 0.00 0.00 0.00 41 1013.4
20260905215642 95 177 14.0 23.0 0.00 0.00 0.00 43 1013.5
20260905215259 94 146 14.0 23.0 0.00 0.00 0.00 44 1013.5
20260905215151 94 123 12.0 23.0 0.00 0.00 0.00 44 1013.4
20260905214700 94 154 15.0 24.0 0.00 0.00 0.00 45 1013.4
20260905214236 94 162 16.0 24.0 0.00 0.00 0.00 44 1013.6
20260905214147 94 139 16.0 24.0 0.00 0.00 0.00 45 1013.6
20260905213637 94 142 16.0 23.0 0.00 0.00 0.00 46 1013.6
20260905213254 94 147 14.0 24.0 0.00 0.00 0.00 46 1013.5
20260905213147 94 294 15.0 24.0 0.00 0.00 0.00 47 1013.6
20260905212655 94 81 14.0 24.0 0.00 0.00 0.00 47 1013.7
20260905212251 93 141 17.0 24.0 0.00 0.00 0.00 46 1013.8
20260905212204 93 117 15.0 23.0 0.00 0.00 0.00 46 1013.8
20260905211638 93 99 13.0 23.0 0.00 0.00 0.00 47 1013.8
20260905211251 93 202 13.0 26.0 0.00 0.00 0.00 47 1014.0
20260905211148 93 212 12.0 26.0 0.00 0.00 0.00 46 1014.0
20260905210638 93 281 10.0 26.0 0.00 0.00 0.00 47 1014.1
20260905210254 93 145 15.0 24.0 0.00 0.00 0.00 46 1014.2
20260905210146 93 251 13.0 23.0 0.00 0.00 0.00 48 1014.2
20260905205636 93 142 14.0 22.0 0.00 0.00 0.00 49 1014.3
20260905205253 93 295 11.0 24.0 0.00 0.00 0.00 50 1014.3
20260905205146 93 98 11.0 24.0 0.00 0.00 0.00 50 1014.4
20260905204636 93 210 15.0 24.0 0.00 0.00 0.00 49 1014.4
20260905204253 92 115 11.0 25.0 0.00 0.00 0.00 50 1014.5
20260905204147 92 157 14.0 25.0 0.00 0.00 0.00 49 1014.5
20260905203636 93 141 12.0 23.0 0.00 0.00 0.00 49 1014.7
20260905203251 92 144 13.0 22.0 0.00 0.00 0.00 49 1014.8
20260905203203 92 173 15.0 22.0 0.00 0.00 0.00 50 1015.0
20260905202650 92 156 11.0 20.0 0.00 0.00 0.00 50 1014.8
20260905202247 92 153 11.0 20.0 0.00 0.00 0.00 51 1014.9
20260905202144 92 141 13.0 22.0 0.00 0.00 0.00 51 1014.9
20260905201652 91 130 15.0 23.0 0.00 0.00 0.00 50 1015.0
20260905201249 92 157 13.0 23.0 0.00 0.00 0.00 49 1015.0
20260905201142 92 146 15.0 23.0 0.00 0.00 0.00 48 1015.1
20260905200652 92 127 11.0 18.0 0.00 0.00 0.00 49 1015.0
20260905200250 92 121 13.0 18.0 0.00 0.00 0.00 49 1015.0
20260905200142 92 154 11.0 17.0 0.00 0.00 0.00 49 1015.1
20260905195651 92 136 11.0 21.0 0.00 0.00 0.00 48 1015.1
20260905195247 93 130 14.0 21.0 0.00 0.00 0.00 47 1015.1
20260905195139 93 152 14.0 20.0 0.00 0.00 0.00 47 1015.1
20260905194708 93 135 11.0 18.0 0.00 0.00 0.00 48 1015.1
20260905194242 93 144 10.0 18.0 0.00 0.00 0.00 49 1015.1
20260905194155 93 157 10.0 18.0 0.00 0.00 0.00 49 1015.1
20260905193649 93 121 9.0 19.0 0.00 0.00 0.00 48 1015.1
20260905193242 93 141 13.0 19.0 0.00 0.00 0.00 48 1015.1
20260905193138 93 163 12.0 19.0 0.00 0.00 0.00 48 1015.1
20260905192707 93 157 12.0 22.0 0.00 0.00 0.00 47 1015.1
20260905192241 93 175 16.0 21.0 0.00 0.00 0.00 47 1015.2
20260905192155 93 151 15.0 19.0 0.00 0.00 0.00 47 1015.1
20260905191644 93 158 10.0 20.0 0.00 0.00 0.00 47 1015.2
20260905191241 93 146 12.0 20.0 0.00 0.00 0.00 47 1015.2
20260905191153 93 134 12.0 20.0 0.00 0.00 0.00 46 1015.1
20260905190644 93 144 11.0 20.0 0.00 0.00 0.00 46 1015.2
20260905190240 93 112 10.0 15.0 0.00 0.00 0.00 45 1015.2
20260905190151 93 142 11.0 15.0 0.00 0.00 0.00 47 1015.3
20260905185641 93 162 9.0 18.0 0.00 0.00 0.00 47 1015.3
20260905185238 93 155 11.0 21.0 0.00 0.00 0.00 46 1015.3
20260905185151 93 150 13.0 21.0 0.00 0.00 0.00 47 1015.3
20260905184643 92 150 12.0 21.0 0.00 0.00 0.00 48 1015.4
20260905184239 92 131 12.0 19.0 0.00 0.00 0.00 48 1015.4
20260905184151 92 152 9.0 16.0 0.00 0.00 0.00 48 1015.4
20260905183642 91 49 12.0 21.0 0.00 0.00 0.00 49 1015.4
20260905183238 91 113 13.0 21.0 0.00 0.00 0.00 49 1015.4
20260905183151 91 143 14.0 21.0 0.00 0.00 0.00 49 1015.4
20260905182641 91 257 15.0 19.0 0.00 0.00 0.00 48 1015.4
20260905182239 91 157 10.0 15.0 0.00 0.00 0.00 50 1015.5
20260905182151 91 165 9.0 16.0 0.00 0.00 0.00 48 1015.5
20260905181641 90 153 10.0 16.0 0.00 0.00 0.00 49 1015.5
20260905181317 90 171 12.0 14.0 0.00 0.00 0.00 49 1015.5
20260905181148 90 166 10.0 15.0 0.00 0.00 0.00 53 1015.4
20260905180657 90 123 8.0 16.0 0.00 0.00 0.00 51 1015.5
20260905180307 90 155 10.0 16.0 0.00 0.00 0.00 52 1015.6
20260905180159 90 142 11.0 16.0 0.00 0.00 0.00 51 1015.6
20260905175707 89 190 7.0 17.0 0.00 0.00 0.00 52 1015.6
20260905175242 89 128 12.0 17.0 0.00 0.00 0.00 53 1015.6
20260905175215 89 135 13.0 17.0 0.00 0.00 0.00 53 1015.7
20260905174643 89 198 12.0 17.0 0.00 0.00 0.00 54 1015.7
20260905174240 88 155 9.0 16.0 0.00 0.00 0.00 53 1015.6
20260905174150 88 130 10.0 16.0 0.00 0.00 0.00 53 1015.6
20260905173643 88 157 10.0 17.0 0.00 0.00 0.00 53 1015.6
20260905173317 88 163 11.0 17.0 0.00 0.00 0.00 53 1015.7
20260905173152 88 165 13.0 17.0 0.00 0.00 0.00 54 1015.8
20260905172642 88 140 12.0 16.0 0.00 0.00 0.00 53 1015.8
20260905172257 88 146 11.0 17.0 0.00 0.00 0.00 53 1015.8
20260905172148 88 155 10.0 16.0 0.00 0.00 0.00 54 1015.8
20260905171637 88 113 9.0 16.0 0.00 0.00 0.00 54 1015.8
20260905171253 88 155 11.0 19.0 0.00 0.00 0.00 53 1015.9
20260905171206 88 173 10.0 19.0 0.00 0.00 0.00 52 1015.9
20260905170714 89 171 12.0 19.0 0.00 0.00 0.00 53 1015.8
20260905170250 88 153 10.0 19.0 0.00 0.00 0.00 53 1015.8
20260905170203 88 184 11.0 19.0 0.00 0.00 0.00 53 1015.9
20260905165651 88 157 13.0 19.0 0.00 0.00 0.00 54 1015.9
20260905165248 87 126 11.0 18.0 0.00 0.00 0.00 55 1015.8
20260905165142 87 149 11.0 18.0 0.00 0.00 0.00 54 1015.8
20260905164651 87 152 12.0 19.0 0.00 0.00 0.00 56 1015.8
20260905164247 87 89 8.0 16.0 0.00 0.00 0.00 56 1015.9
20260905164159 87 160 10.0 16.0 0.00 0.00 0.00 56 1015.9
20260905163648 86 157 10.0 14.0 0.00 0.00 0.00 57 1015.9
20260905163307 86 137 10.0 15.0 0.00 0.00 0.00 56 1015.8
20260905163139 86 163 9.0 15.0 0.00 0.00 0.00 56 1015.9
20260905162648 86 144 9.0 16.0 0.00 0.00 0.00 55 1015.9
20260905162245 87 217 8.0 16.0 0.00 0.00 0.00 54 1015.9
20260905162202 87 15 10.0 16.0 0.00 0.00 0.00 56 1015.8
20260905161711 87 229 9.0 20.0 0.00 0.00 0.00 56 1015.8
20260905161242 87 305 8.0 20.0 0.00 0.00 0.00 56 1015.9
20260905161200 87 11 12.0 20.0 0.00 0.00 0.00 56 1015.9
20260905160709 86 136 8.0 14.0 0.00 0.00 0.00 57 1015.8
20260905160300 86 169 10.0 16.0 0.00 0.00 0.00 58 1015.8
20260905160155 86 159 10.0 16.0 0.00 0.00 0.00 56 1015.8
20260905155645 85 190 11.0 16.0 0.00 0.00 0.00 56 1015.8
20260905155241 85 171 11.0 17.0 0.00 0.00 0.00 58 1015.9
20260905155154 84 178 10.0 17.0 0.00 0.00 0.00 58 1015.9
20260905154644 83 175 8.0 14.0 0.00 0.00 0.00 61 1015.9
20260905154301 83 169 8.0 12.0 0.00 0.00 0.00 62 1015.8
20260905154153 83 189 8.0 12.0 0.00 0.00 0.00 62 1015.9
20260905153643 83 157 8.0 12.0 0.00 0.00 0.00 61 1015.8
20260905153258 82 168 8.0 15.0 0.00 0.00 0.00 62 1015.8
20260905153150 82 145 8.0 15.0 0.00 0.00 0.00 61 1015.8
20260905152640 82 176 8.0 15.0 0.00 0.00 0.00 63 1015.8
20260905152256 82 153 9.0 14.0 0.00 0.00 0.00 65 1015.8
20260905152209 82 205 7.0 14.0 0.00 0.00 0.00 64 1015.8
20260905151639 82 150 7.0 11.0 0.00 0.00 0.00 64 1015.9
20260905151255 81 164 5.0 9.0 0.00 0.00 0.00 64 1015.8
20260905151152 81 147 4.0 9.0 0.00 0.00 0.00 64 1015.8
20260905150700 81 175 5.0 9.0 0.00 0.00 0.00 63 1015.8
20260905150251 81 173 7.0 10.0 0.00 0.00 0.00 62 1015.8
20260905150149 81 165 7.0 10.0 0.00 0.00 0.00 62 1015.8
20260905145639 81 187 6.0 12.0 0.00 0.00 0.00 62 1015.6
20260905145252 82 161 7.0 12.0 0.00 0.00 0.00 61 1015.5
20260905145145 82 159 7.0 12.0 0.00 0.00 0.00 61 1015.5
20260905144654 82 205 10.0 12.0 0.00 0.00 0.00 62 1015.4
20260905144251 82 173 6.0 12.0 0.00 0.00 0.00 63 1015.5
20260905144204 82 175 5.0 11.0 0.00 0.00 0.00 64 1015.5
20260905143650 81 153 7.0 10.0 0.00 0.00 0.00 65 1015.4
20260905143247 80 171 6.0 13.0 0.00 0.00 0.00 66 1015.3
20260905143140 80 184 7.0 13.0 0.00 0.00 0.00 65 1015.3
20260905142649 80 187 9.0 13.0 0.00 0.00 0.00 66 1015.2
20260905142246 80 188 8.0 15.0 0.00 0.00 0.00 66 1015.1
20260905142139 80 187 7.0 15.0 0.00 0.00 0.00 67 1015.2
20260905141653 79 188 11.0 15.0 0.00 0.00 0.00 66 1015.1
20260905141245 79 173 8.0 15.0 0.00 0.00 0.00 67 1015.1
20260905141142 79 192 10.0 15.0 0.00 0.00 0.00 67 1015.1
20260905140651 78 211 7.0 13.0 0.00 0.00 0.00 68 1014.9
20260905140248 78 230 9.0 13.0 0.00 0.00 0.00 69 1014.8
20260905140139 77 205 7.0 13.0 0.00 0.00 0.00 69 1014.8
20260905135650 77 240 7.0 11.0 0.00 0.00 0.00 69 1014.8
20260905135247 76 224 9.0 13.0 0.00 0.00 0.00 71 1014.7
20260905135200 76 229 9.0 13.0 0.00 0.00 0.00 71 1014.8
20260905134708 75 200 7.0 10.0 0.00 0.00 0.00 72 1014.7
20260905134243 74 230 7.0 11.0 0.00 0.00 0.00 73 1014.7
20260905134216 74 225 6.0 11.0 0.00 0.00 0.00 74 1014.7
20260905133645 73 204 6.0 11.0 0.00 0.00 0.00 74 1014.7
20260905133242 72 237 6.0 9.0 0.00 0.00 0.00 75 1014.8
20260905133156 72 230 6.0 9.0 0.00 0.00 0.00 76 1014.8
20260905132645 71 230 4.0 6.0 0.00 0.00 0.00 77 1014.9
20260905132241 71 250 2.0 4.0 0.00 0.00 0.00 78 1015.0
20260905132138 71 281 2.0 4.0 0.00 0.00 0.00 78 1015.0
20260905131648 71 264 2.0 7.0 0.00 0.00 0.00 77 1014.9
20260905131245 71 257 3.0 7.0 0.00 0.00 0.00 77 1014.7
20260905131158 71 226 4.0 9.0 0.00 0.00 0.00 77 1014.7
20260905130646 71 211 5.0 10.0 0.00 0.00 0.00 76 1014.5
20260905130242 71 241 6.0 10.0 0.00 0.00 0.00 77 1014.5
20260905130215 71 209 6.0 10.0 0.00 0.00 0.00 77 1014.4
20260905125704 70 197 6.0 10.0 0.00 0.00 0.00 77 1014.4
20260905125238 70 224 7.0 11.0 0.00 0.00 0.00 78 1014.3
20260905125151 70 207 8.0 11.0 0.00 0.00 0.00 79 1014.3
20260905124640 69 240 8.0 11.0 0.00 0.00 0.00 79 1014.3
20260905124256 69 224 7.0 11.0 0.00 0.00 0.00 80 1014.1
20260905124149 69 234 8.0 11.0 0.00 0.00 0.00 80 1014.2
20260905123639 69 211 7.0 10.0 0.00 0.00 0.00 80 1014.1
20260905123256 69 217 7.0 10.0 0.00 0.00 0.00 80 1014.0
20260905123149 69 242 7.0 10.0 0.00 0.00 0.00 80 1014.0
20260905122643 69 227 8.0 10.0 0.00 0.00 0.00 80 1014.0
20260905122316 69 234 8.0 10.0 0.00 0.00 0.00 80 1014.0
20260905122151 69 224 8.0 11.0 0.00 0.00 0.00 80 1013.9
20260905121638 69 211 8.0 11.0 0.00 0.00 0.00 80 1013.9
20260905121310 69 228 8.0 11.0 0.00 0.00 0.00 80 1013.9
20260905121146 69 231 8.0 11.0 0.00 0.00 0.00 80 1013.9
20260905120657 69 226 8.0 10.0 0.00 0.00 0.00 81 1013.9
20260905120254 69 205 7.0 9.0 0.00 0.00 0.00 81 1013.9
20260905120145 69 224 7.0 9.0 0.00 0.00 0.00 81 1013.9
20260905115654 69 232 7.0 10.0 0.00 0.00 0.00 81 1013.9
20260905115251 69 205 6.0 11.0 0.00 0.00 0.00 80 1014.0
20260905115204 69 192 7.0 11.0 0.00 0.00 0.00 81 1014.0
20260905114654 69 209 7.0 10.0 0.00 0.00 0.00 81 1014.0
20260905114251 69 231 8.0 10.0 0.00 0.00 0.00 82 1014.0
20260905114143 69 211 8.0 10.0 0.00 0.00 0.00 82 1014.0
20260905113653 69 204 8.0 10.0 0.00 0.00 0.00 82 1014.1
20260905113250 69 168 7.0 9.0 0.00 0.00 0.00 81 1014.1
20260905113143 69 191 7.0 9.0 0.00 0.00 0.00 81 1014.3
20260905112653 69 206 6.0 7.0 0.00 0.00 0.00 80 1014.3
20260905112249 70 193 6.0 7.0 0.00 0.00 0.00 80 1014.4
20260905112146 70 206 6.0 7.0 0.00 0.00 0.00 80 1014.4
20260905111656 70 197 6.0 7.0 0.00 0.00 0.00 79 1014.4
20260905111252 70 200 6.0 8.0 0.00 0.00 0.00 79 1014.3
20260905111145 70 211 6.0 8.0 0.00 0.00 0.00 79 1014.4
20260905110655 71 193 6.0 9.0 0.00 0.00 0.00 78 1014.4
20260905110252 71 190 7.0 10.0 0.00 0.00 0.00 77 1014.4
20260905110144 71 177 8.0 10.0 0.00 0.00 0.00 77 1014.5
20260905105655 72 182 8.0 11.0 0.00 0.00 0.00 76 1014.4
20260905105249 72 196 8.0 11.0 0.00 0.00 0.00 76 1014.5
20260905105142 72 191 8.0 11.0 0.00 0.00 0.00 75 1014.5
20260905104651 72 164 8.0 10.0 0.00 0.00 0.00 75 1014.6
20260905104248 72 177 8.0 11.0 0.00 0.00 0.00 74 1014.6
20260905104146 72 178 7.0 11.0 0.00 0.00 0.00 74 1014.7
20260905103655 72 173 9.0 11.0 0.00 0.00 0.00 75 1014.5
20260905103252 72 188 10.0 12.0 0.00 0.00 0.00 74 1014.4
20260905103146 72 207 9.0 12.0 0.00 0.00 0.00 74 1014.5
20260905102655 72 179 8.0 11.0 0.00 0.00 0.00 74 1014.6
20260905102252 72 146 8.0 11.0 0.00 0.00 0.00 73 1014.7
20260905102144 72 155 8.0 11.0 0.00 0.00 0.00 73 1014.7
20260905101715 73 192 7.0 10.0 0.00 0.00 0.00 72 1014.6
20260905101251 73 161 6.0 10.0 0.00 0.00 0.00 71 1014.7
20260905101144 73 131 6.0 10.0 0.00 0.00 0.00 71 1014.7
20260905100654 74 154 7.0 9.0 0.00 0.00 0.00 70 1014.8
20260905100309 74 169 7.0 9.0 0.00 0.00 0.00 69 1014.7
20260905100201 74 184 7.0 10.0 0.00 0.00 0.00 69 1014.7
20260905095648 74 173 7.0 10.0 0.00 0.00 0.00 68 1014.6
20260905095246 75 188 7.0 10.0 0.00 0.00 0.00 68 1014.5
20260905095138 75 194 7.0 10.0 0.00 0.00 0.00 68 1014.6
20260905094652 75 182 7.0 13.0 0.00 0.00 0.00 68 1014.6
20260905094244 75 196 8.0 13.0 0.00 0.00 0.00 67 1014.6
20260905094141 75 179 9.0 13.0 0.00 0.00 0.00 67 1014.5
20260905093650 75 180 8.0 14.0 0.00 0.00 0.00 67 1014.6
20260905093245 76 153 8.0 13.0 0.00 0.00 0.00 67 1014.7
20260905093138 76 190 9.0 15.0 0.00 0.00 0.00 67 1014.7
20260905092648 76 189 10.0 16.0 0.00 0.00 0.00 67 1014.7
20260905092244 76 178 11.0 16.0 0.00 0.00 0.00 66 1014.6
20260905092217 76 197 11.0 16.0 0.00 0.00 0.00 66 1014.6
20260905091647 76 175 9.0 14.0 0.00 0.00 0.00 66 1014.6
20260905091244 76 205 9.0 14.0 0.00 0.00 0.00 66 1014.7
20260905091157 76 192 9.0 14.0 0.00 0.00 0.00 66 1014.7
20260905090646 76 184 10.0 16.0 0.00 0.00 0.00 66 1014.7
20260905090242 76 180 10.0 16.0 0.00 0.00 0.00 66 1014.7
20260905090216 76 178 10.0 16.0 0.00 0.00 0.00 66 1014.6
20260905085705 76 181 10.0 18.0 0.00 0.00 0.00 66 1014.6
20260905085305 76 186 11.0 19.0 0.00 0.00 0.00 66 1014.7
20260905085213 76 205 11.0 19.0 0.00 0.00 0.00 66 1014.6
20260905084643 76 169 11.0 19.0 0.00 0.00 0.00 66 1014.7
20260905084239 76 193 10.0 14.0 0.00 0.00 0.00 66 1014.8
20260905084152 76 146 10.0 17.0 0.00 0.00 0.00 66 1014.8
20260905083646 75 187 10.0 17.0 0.00 0.00 0.00 66 1014.8
20260905083243 75 178 11.0 18.0 0.00 0.00 0.00 66 1014.8
20260905083156 75 192 11.0 18.0 0.00 0.00 0.00 65 1014.8
20260905082645 75 182 10.0 18.0 0.00 0.00 0.00 65 1014.8
20260905082306 75 225 10.0 16.0 0.00 0.00 0.00 65 1014.9
20260905082153 75 162 11.0 16.0 0.00 0.00 0.00 65 1014.9
20260905081644 76 207 10.0 15.0 0.00 0.00 0.00 64 1014.9
20260905081301 75 171 11.0 16.0 0.00 0.00 0.00 64 1014.9
20260905081152 75 159 10.0 16.0 0.00 0.00 0.00 64 1014.9
20260905080640 75 180 10.0 16.0 0.00 0.00 0.00 64 1014.9
20260905080256 75 210 11.0 18.0 0.00 0.00 0.00 64 1014.9
20260905080150 75 207 11.0 18.0 0.00 0.00 0.00 64 1014.9
20260905075639 75 200 11.0 17.0 0.00 0.00 0.00 64 1014.9
20260905075256 75 170 12.0 17.0 0.00 0.00 0.00 64 1014.9
20260905075149 75 199 11.0 17.0 0.00 0.00 0.00 64 1014.8
20260905074643 75 217 13.0 22.0 0.00 0.00 0.00 64 1014.8
20260905074240 75 202 13.0 22.0 0.00 0.00 0.00 64 1015.0
20260905074213 75 202 13.0 22.0 0.00 0.00 0.00 64 1015.0
20260905073642 75 175 13.0 21.0 0.00 0.00 0.00 65 1015.0
20260905073238 75 182 13.0 21.0 0.00 0.00 0.00 65 1015.0
20260905073151 75 204 13.0 21.0 0.00 0.00 0.00 65 1014.9
20260905072641 75 203 13.0 21.0 0.00 0.00 0.00 65 1015.0
20260905072257 75 203 12.0 22.0 0.00 0.00 0.00 66 1015.0
20260905072150 75 204 12.0 21.0 0.00 0.00 0.00 66 1015.0
20260905071659 75 219 14.0 20.0 0.00 0.00 0.00 67 1015.0
20260905071314 75 199 13.0 19.0 0.00 0.00 0.00 67 1015.0
20260905071146 75 213 13.0 19.0 0.00 0.00 0.00 67 1015.0
20260905070656 75 226 11.0 15.0 0.00 0.00 0.00 68 1015.0
20260905070313 74 218 10.0 14.0 0.00 0.00 0.00 68 1014.9
20260905070145 74 188 10.0 13.0 0.00 0.00 0.00 68 1014.9
20260905065715 74 238 9.0 12.0 0.00 0.00 0.00 68 1014.8
20260905065249 74 200 7.0 12.0 0.00 0.00 0.00 68 1014.9
20260905065139 74 250 8.0 12.0 0.00 0.00 0.00 68 1014.9
20260905064653 74 187 8.0 12.0 0.00 0.00 0.00 68 1015.0
20260905064245 74 175 8.0 12.0 0.00 0.00 0.00 68 1015.1
20260905064142 74 194 8.0 12.0 0.00 0.00 0.00 68 1015.0
20260905063652 75 166 7.0 11.0 0.00 0.00 0.00 67 1015.0
20260905063249 75 189 8.0 11.0 0.00 0.00 0.00 67 1015.0
20260905063141 75 186 8.0 11.0 0.00 0.00 0.00 67 1015.1
20260905062650 75 192 8.0 11.0 0.00 0.00 0.00 66 1014.9
20260905062247 75 167 6.0 12.0 0.00 0.00 0.00 65 1014.8
20260905062140 75 181 7.0 12.0 0.00 0.00 0.00 65 1014.8
20260905061648 75 194 8.0 12.0 0.00 0.00 0.00 64 1014.7
20260905061245 76 178 8.0 14.0 0.00 0.00 0.00 63 1014.8
20260905061157 76 207 8.0 17.0 0.00 0.00 0.00 63 1014.8
20260905060647 76 175 10.0 16.0 0.00 0.00 0.00 62 1014.8
20260905060244 76 166 12.0 19.0 0.00 0.00 0.00 61 1014.7
20260905060142 76 188 12.0 20.0 0.00 0.00 0.00 61 1014.8
20260905055650 76 183 14.0 20.0 0.00 0.00 0.00 59 1014.8
20260905055246 76 153 12.0 17.0 0.00 0.00 0.00 59 1014.8
20260905055139 76 168 11.0 17.0 0.00 0.00 0.00 59 1014.8
20260905054648 76 160 12.0 17.0 0.00 0.00 0.00 59 1014.8
20260905054245 76 160 10.0 17.0 0.00 0.00 0.00 59 1014.7
20260905054157 76 157 11.0 17.0 0.00 0.00 0.00 59 1014.7
20260905053644 76 182 12.0 18.0 0.00 0.00 0.00 60 1014.7
20260905053241 75 153 11.0 16.0 0.00 0.00 0.00 61 1014.5
20260905053152 75 173 11.0 15.0 0.00 0.00 0.00 61 1014.5
20260905052721 74 165 9.0 13.0 0.00 0.00 0.00 62 1014.5
20260905052313 74 181 9.0 13.0 0.00 0.00 0.00 63 1014.5
20260905052145 74 178 10.0 14.0 0.00 0.00 0.00 63 1014.5
20260905051653 74 167 10.0 12.0 0.00 0.00 0.00 64 1014.4
20260905051310 74 178 9.0 11.0 0.00 0.00 0.00 65 1014.4
20260905051141 74 186 8.0 10.0 0.00 0.00 0.00 65 1014.4
20260905050649 74 159 8.0 11.0 0.00 0.00 0.00 66 1014.3
20260905050245 73 171 8.0 11.0 0.00 0.00 0.00 66 1014.4
20260905050142 73 184 8.0 11.0 0.00 0.00 0.00 66 1014.3
20260905045653 73 157 7.0 11.0 0.00 0.00 0.00 66 1014.2
20260905045247 73 149 8.0 11.0 0.00 0.00 0.00 65 1014.3
20260905045140 73 155 8.0 10.0 0.00 0.00 0.00 65 1014.3
20260905044710 73 147 8.0 11.0 0.00 0.00 0.00 64 1014.4
20260905044245 73 178 7.0 10.0 0.00 0.00 0.00 64 1014.5
20260905044158 73 154 7.0 10.0 0.00 0.00 0.00 64 1014.5
20260905043647 73 170 8.0 10.0 0.00 0.00 0.00 64 1014.5
20260905043245 73 194 9.0 12.0 0.00 0.00 0.00 64 1014.5
20260905043217 74 169 8.0 11.0 0.00 0.00 0.00 64 1014.5
20260905042646 74 164 8.0 10.0 0.00 0.00 0.00 63 1014.5
20260905042306 74 151 7.0 9.0 0.00 0.00 0.00 62 1014.6
20260905042154 74 166 7.0 9.0 0.00 0.00 0.00 62 1014.6